"Pseudo-MPEC" for 6EE3C21

Created 2026 May 17 2:35:02 UT using Find_Orb

Click here for an explanation of pseudo-MPECs

 
 Astrometry: 
     6EE3C21*KC2026 05 15.19159 15 25 41.98 -24 30 28.7    ~5F6o 18.6 GVNEOCPW94
     6EE3C21 KC2026 05 15.19777 15 25 49.41 -24 28 51.1    ~5F6o 18.8 GVNEOCPW94
     6EE3C21 KC2026 05 15.20397 15 25 56.88 -24 27 14.1    ~5F6o 18.5 GVNEOCPW94
     6EE3C21 4C2026 05 15.27337 15 27 19.20 -24 09 09.5    ~5F7K 18.6 VqNEOCPW97
     6EE3C21 4C2026 05 15.27918 15 27 26.02 -24 07 39.5    ~5F7K 19.0 VqNEOCPW97
     6EE3C21 4C2026 05 15.28497 15 27 32.80 -24 06 09.5    ~5F7K 18.6 VqNEOCPW97
     6EE3C21 !C2026 05 15.34008115 28 51.053-23 56 32.06   ~5F8K 18.8 GWNEOCP673
     6EE3C21 !C2026 05 15.34033615 28 51.377-23 56 28.00   ~5F8K 18.7 GWNEOCP673
     6EE3C21 0B2026 05 15.38923 15 30 03.64 -23 38 32.1    ~5FAZ       VNEOCPE84
     6EE3C21 0B2026 05 15.39932 15 30 15.13 -23 36 08.3    ~5FAZ       VNEOCPE84
     6EE3C21 0B2026 05 15.40929 15 30 26.41 -23 33 47.7    ~5FAZ       VNEOCPE84
     6EE3C21 KB2026 05 15.90898 15 39 13.63 -21 49 14.3    ~5G5o 19.1 GXNEOCPM45
     6EE3C21 KB2026 05 15.91273 15 39 16.96 -21 48 28.4    ~5G5o       XNEOCPM45
     6EE3C21 KB2026 05 15.91636 15 39 20.13 -21 47 45.0    ~5G5o 19.1 GXNEOCPM45
     6EE3C21 0C2026 05 15.93522615 39 43.165-21 43 34.63   ~5FNK 19.0 GXNEOCPR59
     6EE3C21 0C2026 05 15.94523115 39 51.870-21 41 35.61   ~5FNK 18.9 GXNEOCPR59
     6EE3C21 0C2026 05 15.95305615 39 58.657-21 40 03.48   ~5FNK 19.1 GXNEOCPR59
     6EE3C21 KB2026 05 16.15086815 43 00.818-21 01 31.48   ~5G4Z 18.9 VZNEOCPW05
     6EE3C21 KB2026 05 16.15986115 43 07.913-20 59 53.41   ~5G4Z 18.8 VZNEOCPW05
     6EE3C21 KB2026 05 16.16934015 43 15.314-20 58 11.21   ~5G4Z 18.9 VZNEOCPW05
     6EE3C21 KB2026 05 16.59135915 48 46.145-19 45 18.76   ~5GF5 19.1 GWNEOCP900
     6EE3C21 KB2026 05 16.60192415 48 53.011-19 43 38.50   ~5GF5 19.0 GWNEOCP900
     6EE3C21 KB2026 05 16.91275015 52 28.116-18 56 19.32   ~5GMo 19.3 GXNEOCP595
     6EE3C21 KB2026 05 16.92040315 52 32.614-18 55 12.25   ~5GMo 18.2 GXNEOCP595
     6EE3C21 KB2026 05 16.92804915 52 37.092-18 54 06.70   ~5GMo 19.7 GXNEOCP595
     6EE3C21 KC2026 05 16.96130 15 52 56.88 -18 49 16.6    ~5GNo 18.5 GVNEOCP104
     6EE3C21 KB2026 05 16.96179015 52 57.267-18 49 12.40   ~5GNo 19.11GXNEOCP126
     6EE3C21 KC2026 05 16.96677 15 53 00.02 -18 48 29.9    ~5GNo       VNEOCP104
     6EE3C21 KB2026 05 16.97246515 53 03.478-18 47 41.05   ~5GNo 19.15GXNEOCP126
     6EE3C21 KC2026 05 16.97322 15 53 03.69 -18 47 34.2    ~5GNo 18.7 GVNEOCP104
     6EE3C21 |C2026 05 17.02975015 53 49.990-18 35 20.40   ~5H1Z 19.4 GVNEOCP807
     6EE3C21 |C2026 05 17.03411015 53 52.560-18 34 44.90   ~5H1Z 19.4 GVNEOCP807
     6EE3C21 |C2026 05 17.03848015 53 55.120-18 34 09.80   ~5H1Z 19.7 GVNEOCP807
     6EE3C21 |C2026 05 17.04284015 53 57.610-18 33 34.50   ~5H1Z 19.0 GVNEOCP807

Station data:
(104) San Marcello Pistoiese  (N44.064178 E10.803750)  Italy.  Observers P.
   Bacci, M. Maestripieri. Measurers P. Bacci, L. Tesi, G. Fagioli. 0.60-m
   reflector + CCD.
(126) Monte Viseggi  (N44.132565 E9.790150)  Italy.
   Observers L. Sannino, A. Mancuso, S. Mercanti, D. Agnetti. Measurers L.
   Sannino, A. Mancuso. 0.41-m f/5.3 reflector + CCD.
(595) Farra d'Isonzo  (N45.915731 E13.525780)  Italy.  Observers S. Aschi, E.
   Pettarin, G. Panterotto. Measurers S. Aschi, E. Pettarin. 0.40-m f/5.15
   reflector + CCD.
(673) Table Mountain Observatory, Wrightwood  (N34.381485 W117.682170)
   US/California.  Observers J. Chesley, J. Pittichova. Measurer W. M. Owen
   Jr. 0.61-m f/16 reflector + CCD.
(807) Cerro Tololo Observatory, La Serena  (S30.169133 W70.805900)  Chile.
   Observer R. Holmes. 0.61-m f/6.5 astrograph + CCD.
(900) Moriyama  (N35.049753 E135.989940)  Japan.  Observer Y. Ikari. 0.26-m
   f/7.0 reflector + CCD.
(E84) Twizel Observatory  (S44.257509 E170.101870)  New Zealand.
(M45) Starhopper Observatory, Sfantu Gheorghe  (N45.865494 E25.768890)
   Romania.  Observer F. Ursache. 0.41-m f/7.5 reflector + CMO.
(R59) Camarasa Observatory, Astrocamp Nerpio  (N38.165429 W2.326580)  Spain.
(W05) Tree Gate Farm Observatory, Starkville  (N33.347635 W88.732810).
   Observer J.-F. Gout. 0.5-m f/1.5 reflector + CMOS.
(W94) AMACS1, San Pedro de Atacama  (S22.953074 W68.179810)  Chile.  Observers
   A. Maury, G. Attard. Measurers A. Maury, G. Attard, D. Parrott. 0.28-m
   f/2.2 Schmidt + CCD.
(W97) Atacama Desert Observatory, San Pedro de Atacama  (S22.953413
   W68.179760)  Chile.

Orbital elements:  6EE3C21
   Perihelion 2026 Apr 3.223064 +/- 0.00824 TT =  5:21:12.7 (JD 2461133.723064)
Epoch 2026 May 17.0 TT = JDT 2461177.5   Earth MOID: 0.0131   Ma: 0.0894
M  15.266013328 +/- 0.023           (J2000 ecliptic)             AutoNEOCP
n   0.348722748 +/- 0.000476        Peri.  302.840072 +/- 0.0024
a   1.999014125 +/- 0.00182         Node   235.394246 +/- 0.00011
e   0.56104795 +/- 0.000428         Incl.    6.880259 +/- 0.0041
P   2.82634                H 25.83  G  0.15   U  7.6
q 0.877471348 +/- 5.83e-5    Q 3.120556903 +/- 0.0037
From 34 observations 2026 May 15-17 (44.4 hr); mean residual 0".35
Residuals in arcseconds: 
260515 W94  .02+  .27-    260515 M45  .19+  .10+    260516 595  .04+  .18-    
260515 W94  .16-  .29+    260515 M45  .09-  .41-    260516 104  .08+  .27+    
260515 W94  .15+  .00     260515 R59  .66-  .30-    260516 126  1.0-  .25+    
260515 W97  .19+  .21+    260515 R59  .11-  .28+    260516 104  .20+  .01+    
260515 W97  .03+  .13-    260515 R59  .60+  .12-    260516 126  .51+  .03+    
260515 W97  .27-  .07-    260516 W05  .42+  .50+    260516 104  .01+  .36+    
260515 673  .55-  .00     260516 W05  .09+  .35+    260517 807  .25-  .24-    
260515 673  .06-  .25+    260516 W05  .58-  .87-    260517 807  .03-  .02+    
260515 E84  .60+  .42-    260516 900  .50+  .71+    260517 807  .13+  .18-    
260515 E84  .18+  .44+    260516 900  .38+  .33-    260517 807  .45-  .07-    
260515 E84  .04+  .09+    260516 595  .05+  .65-    
260515 M45  .20-  .42-    260516 595  .02+  .29+    

Ephemerides (geocentric):
Date (UTC) HH   RA             Dec           delta  r     elong  mag " sig PA
---- --------  ------------   ------------  ------ ------ -----  --- --------
2026 05 17 03  15 54 37.182   -18 23 22.27  .04368 1.0547 175.1 19.6 .115 140
2026 05 17 04  15 55 02.128   -18 17 43.95  .04397 1.0550 175.0 19.6 .116 138
2026 05 17 05  15 55 26.720   -18 12 09.84  .04426 1.0553 174.9 19.6 .117 136
2026 05 17 06  15 55 50.966   -18 06 39.88  .04455 1.0556 174.9 19.6 .119 135
2026 05 17 07  15 56 14.873   -18 01 13.99  .04484 1.0559 174.8 19.6 .120 133
2026 05 17 08  15 56 38.448   -17 55 52.10  .04513 1.0562 174.7 19.6 .122 131
2026 05 17 09  15 57 01.698   -17 50 34.15  .04542 1.0565 174.6 19.7 .124 130
2026 05 17 10  15 57 24.629   -17 45 20.07  .04571 1.0568 174.6 19.7 .125 128
2026 05 17 11  15 57 47.246   -17 40 09.80  .04600 1.0571 174.5 19.7 .127 127
2026 05 17 12  15 58 09.558   -17 35 03.27  .04629 1.0574 174.4 19.7 .129 125
2026 05 17 13  15 58 31.568   -17 30 00.42  .04658 1.0577 174.3 19.7 .131 124
2026 05 17 14  15 58 53.284   -17 25 01.19  .04687 1.0580 174.3 19.8 .133 122
2026 05 17 15  15 59 14.711   -17 20 05.52  .04716 1.0582 174.2 19.8 .135 121
2026 05 17 16  15 59 35.854   -17 15 13.35  .04745 1.0585 174.1 19.8 .137 119
2026 05 17 17  15 59 56.719   -17 10 24.62  .04774 1.0588 174.0 19.8 .139 118
2026 05 17 18  16 00 17.312   -17 05 39.28  .04803 1.0591 174.0 19.8 .142 117
2026 05 17 19  16 00 37.636   -17 00 57.28  .04833 1.0594 173.9 19.8 .144 115
2026 05 17 20  16 00 57.698   -16 56 18.55  .04862 1.0597 173.8 19.9 .146 114
2026 05 17 21  16 01 17.502   -16 51 43.06  .04891 1.0600 173.7 19.9 .149 113
2026 05 17 22  16 01 37.053   -16 47 10.73  .04920 1.0603 173.7 19.9 .151 112
2026 05 17 23  16 01 56.355   -16 42 41.53  .04950 1.0606 173.6 19.9 .154 110
2026 05 18 00  16 02 15.414   -16 38 15.41  .04979 1.0609 173.5 19.9 .157 109
2026 05 18 01  16 02 34.233   -16 33 52.31  .05008 1.0612 173.5 19.9 .159 108
2026 05 18 02  16 02 52.817   -16 29 32.19  .05038 1.0615 173.4 20.0 .162 107
2026 05 18 03  16 03 11.171   -16 25 15.00  .05067 1.0618 173.3 20.0 .165 106
2026 05 18 04  16 03 29.297   -16 21 00.70  .05096 1.0621 173.3 20.0 .168 105
2026 05 18 05  16 03 47.201   -16 16 49.24  .05126 1.0624 173.2 20.0 .171 104
2026 05 18 06  16 04 04.887   -16 12 40.57  .05155 1.0626 173.1 20.0 .174 103
2026 05 18 07  16 04 22.357   -16 08 34.66  .05185 1.0629 173.1 20.0 .176 102
2026 05 18 08  16 04 39.616   -16 04 31.47  .05214 1.0632 173.0 20.1 .179 101
2026 05 18 09  16 04 56.668   -16 00 30.94  .05244 1.0635 172.9 20.1 .183 100
2026 05 18 10  16 05 13.516   -15 56 33.04  .05273 1.0638 172.9 20.1 .186  99
2026 05 18 11  16 05 30.163   -15 52 37.73  .05303 1.0641 172.8 20.1 .189  99
2026 05 18 12  16 05 46.614   -15 48 44.97  .05332 1.0644 172.8 20.1 .192  98
2026 05 18 13  16 06 02.871   -15 44 54.72  .05362 1.0647 172.7 20.1 .195  97
2026 05 18 14  16 06 18.938   -15 41 06.94  .05391 1.0650 172.6 20.1 .198  96
2026 05 18 15  16 06 34.818   -15 37 21.61  .05421 1.0653 172.6 20.2 .201  96
2026 05 18 16  16 06 50.513   -15 33 38.67  .05451 1.0656 172.5 20.2 .204  95
2026 05 18 17  16 07 06.028   -15 29 58.10  .05480 1.0659 172.5 20.2 .208  94
2026 05 18 18  16 07 21.365   -15 26 19.86  .05510 1.0662 172.4 20.2 .211  93
2026 05 18 19  16 07 36.528   -15 22 43.92  .05540 1.0665 172.4 20.2 .214  93
2026 05 18 20  16 07 51.518   -15 19 10.24  .05569 1.0668 172.3 20.2 .218  92
2026 05 18 21  16 08 06.339   -15 15 38.79  .05599 1.0671 172.2 20.2 .221  92
2026 05 18 22  16 08 20.993   -15 12 09.54  .05629 1.0674 172.2 20.3 .224  91
2026 05 18 23  16 08 35.484   -15 08 42.45  .05659 1.0677 172.1 20.3 .227  90
2026 05 19 00  16 08 49.813   -15 05 17.50  .05688 1.0680 172.1 20.3 .231  90
2026 05 19 01  16 09 03.984   -15 01 54.65  .05718 1.0683 172.0 20.3 .234  89
2026 05 19 02  16 09 17.999   -14 58 33.87  .05748 1.0686 172.0 20.3 .237  89